owner,sensor,date,latitude,longitude,vertical_datum,direction_of_sea_water_velocity,sea_water_speed,upward_sea_water_velocity,qcFlag 
TABS,ioos:station:wmo:42045:1,2015-09-01T00:00:00Z,26.2168,-96.4998,2.0,176.1717601,24.56480613,-99999.0,'11111222,11111222,99999999' 
TABS,ioos:station:wmo:42045:1,2015-09-01T00:30:00Z,26.2168,-96.4998,2.0,185.0606503,23.69236375,-99999.0,'11111222,11111222,99999999' 
TABS,ioos:station:wmo:42045:1,2015-09-01T01:00:00Z,26.2168,-96.4998,2.0,183.7195396,14.95149825,-99999.0,'11111222,11111222,99999999' 
TABS,ioos:station:wmo:42045:1,2015-09-01T01:30:00Z,26.2168,-96.4998,2.0,187.5999586,20.49000244,-99999.0,'11111222,11111222,99999999' 
TABS,ioos:station:wmo:42045:1,2015-09-01T02:00:00Z,26.2168,-96.4998,2.0,190.4124403,18.5352475,-99999.0,'11111222,11111222,99999999' 
TABS,ioos:station:wmo:42045:1,2015-09-01T02:30:00Z,26.2168,-96.4998,2.0,197.1761973,18.285538,-99999.0,'11111222,11111222,99999999' 
TABS,ioos:station:wmo:42045:1,2015-09-01T03:00:00Z,26.2168,-96.4998,2.0,203.3595702,13.99732117,-99999.0,'11111222,11111222,99999999' 
TABS,ioos:station:wmo:42045:1,2015-09-01T03:30:00Z,26.2168,-96.4998,2.0,199.4141088,16.09518251,-99999.0,'11111222,11111222,99999999' 
TABS,ioos:station:wmo:42045:1,2015-09-01T04:00:00Z,26.2168,-96.4998,2.0,198.8359006,13.99974643,-99999.0,'11111222,11111222,99999999' 
TABS,ioos:station:wmo:42045:1,2015-09-01T04:30:00Z,26.2168,-96.4998,2.0,200.5724991,12.0376825,-99999.0,'11111222,11111222,99999999' 
TABS,ioos:station:wmo:42045:1,2015-09-01T05:00:00Z,26.2168,-96.4998,2.0,214.888466,6.363803894,-99999.0,'11133222,11111222,99999999' 
TABS,ioos:station:wmo:42045:1,2015-09-01T05:30:00Z,26.2168,-96.4998,2.0,201.4259855,7.09,-99999.0,'11133222,11111222,99999999' 
TABS,ioos:station:wmo:42045:1,2015-09-01T06:00:00Z,26.2168,-96.4998,2.0,220.2479978,2.816895454,-99999.0,'11133222,11111222,99999999' 
TABS,ioos:station:wmo:42045:1,2015-09-01T06:30:00Z,26.2168,-96.4998,2.0,249.7998197,1.129468902,-99999.0,'11133222,11111222,99999999' 
TABS,ioos:station:wmo:42045:1,2015-09-01T07:00:00Z,26.2168,-96.4998,2.0,277.9438742,1.736663468,-99999.0,'11133222,11111222,99999999' 
TABS,ioos:station:wmo:42045:1,2015-09-01T07:30:00Z,26.2168,-96.4998,2.0,207.8405047,4.218269787,-99999.0,'11133222,11111222,99999999' 
TABS,ioos:station:wmo:42045:1,2015-09-01T08:00:00Z,26.2168,-96.4998,2.0,4.294769609,10.54962085,-99999.0,'11111222,11111222,99999999' 
TABS,ioos:station:wmo:42045:1,2015-09-01T08:30:00Z,26.2168,-96.4998,2.0,354.4248337,13.07183996,-99999.0,'11111222,11111222,99999999' 
TABS,ioos:station:wmo:42045:1,2015-09-01T09:00:00Z,26.2168,-96.4998,2.0,10.68184332,13.05623606,-99999.0,'11111222,11111222,99999999' 
TABS,ioos:station:wmo:42045:1,2015-09-01T09:30:00Z,26.2168,-96.4998,2.0,24.33880809,15.3107348,-99999.0,'11111222,11111222,99999999' 
TABS,ioos:station:wmo:42045:1,2015-09-01T10:00:00Z,26.2168,-96.4998,2.0,38.73879357,31.76889674,-99999.0,'11111222,11111222,99999999' 
TABS,ioos:station:wmo:42045:1,2015-09-01T10:30:00Z,26.2168,-96.4998,2.0,44.24658911,32.26100122,-99999.0,'11111222,11111222,99999999' 
TABS,ioos:station:wmo:42045:1,2015-09-01T11:00:00Z,26.2168,-96.4998,2.0,46.4992532,32.16315439,-99999.0,'11111222,11111222,99999999' 
TABS,ioos:station:wmo:42045:1,2015-09-01T11:30:00Z,26.2168,-96.4998,2.0,53.13724642,32.47200025,-99999.0,'11111222,11111222,99999999' 
TABS,ioos:station:wmo:42045:1,2015-09-01T12:00:00Z,26.2168,-96.4998,2.0,51.45003378,34.24272185,-99999.0,'11111222,11111222,99999999' 
TABS,ioos:station:wmo:42045:1,2015-09-01T12:30:00Z,26.2168,-96.4998,2.0,55.12519754,32.05743128,-99999.0,'11111222,11111222,99999999' 
TABS,ioos:station:wmo:42045:1,2015-09-01T13:00:00Z,26.2168,-96.4998,2.0,57.34330896,29.8366285,-99999.0,'11111222,11111222,99999999' 
TABS,ioos:station:wmo:42045:1,2015-09-01T13:30:00Z,26.2168,-96.4998,2.0,68.48748843,24.67922406,-99999.0,'11111222,11111222,99999999' 
TABS,ioos:station:wmo:42045:1,2015-09-01T14:00:00Z,26.2168,-96.4998,2.0,74.79298378,27.1817917,-99999.0,'11111222,11111222,99999999' 
TABS,ioos:station:wmo:42045:1,2015-09-01T14:30:00Z,26.2168,-96.4998,2.0,93.46822115,16.53027525,-99999.0,'11111222,11111222,99999999' 
TABS,ioos:station:wmo:42045:1,2015-09-01T15:00:00Z,26.2168,-96.4998,2.0,86.65125291,19.00244721,-99999.0,'11111222,11111222,99999999' 
TABS,ioos:station:wmo:42045:1,2015-09-01T15:30:00Z,26.2168,-96.4998,2.0,100.7719041,17.33546942,-99999.0,'11111222,11111222,99999999' 
TABS,ioos:station:wmo:42045:1,2015-09-01T16:00:00Z,26.2168,-96.4998,2.0,109.244251,14.77563535,-99999.0,'11111222,11111222,99999999' 
TABS,ioos:station:wmo:42045:1,2015-09-01T16:30:00Z,26.2168,-96.4998,2.0,107.9659205,13.90816307,-99999.0,'11111222,11111222,99999999' 
TABS,ioos:station:wmo:42045:1,2015-09-01T17:00:00Z,26.2168,-96.4998,2.0,121.3560272,15.52784595,-99999.0,'11111222,11111222,99999999' 
TABS,ioos:station:wmo:42045:1,2015-09-01T17:30:00Z,26.2168,-96.4998,2.0,129.2610933,14.28443909,-99999.0,'11111222,11111222,99999999' 
TABS,ioos:station:wmo:42045:1,2015-09-01T18:00:00Z,26.2168,-96.4998,2.0,140.8536476,13.79688733,-99999.0,'11111222,11111222,99999999' 
TABS,ioos:station:wmo:42045:1,2015-09-01T18:30:00Z,26.2168,-96.4998,2.0,141.3854724,13.79639446,-99999.0,'11111222,11111222,99999999' 
TABS,ioos:station:wmo:42045:1,2015-09-01T19:00:00Z,26.2168,-96.4998,2.0,148.2925699,9.779672796,-99999.0,'11133222,11111222,99999999' 
TABS,ioos:station:wmo:42045:1,2015-09-01T19:30:00Z,26.2168,-96.4998,2.0,159.9575197,7.440604814,-99999.0,'11133222,11111222,99999999' 
TABS,ioos:station:wmo:42045:1,2015-09-01T20:00:00Z,26.2168,-96.4998,2.0,190.8802791,8.635235955,-99999.0,'11133222,11111222,99999999' 
TABS,ioos:station:wmo:42045:1,2015-09-01T20:30:00Z,26.2168,-96.4998,2.0,195.8637458,6.767761816,-99999.0,'11133222,11111222,99999999' 
TABS,ioos:station:wmo:42045:1,2015-09-01T21:00:00Z,26.2168,-96.4998,2.0,204.9045001,5.556725655,-99999.0,'11133222,11111222,99999999' 
TABS,ioos:station:wmo:42045:1,2015-09-01T21:30:00Z,26.2168,-96.4998,2.0,235.5812951,1.309198228,-99999.0,'11133222,11111222,99999999' 
TABS,ioos:station:wmo:42045:1,2015-09-01T22:00:00Z,26.2168,-96.4998,2.0,269.2610021,5.430451178,-99999.0,'11133222,11111222,99999999' 
TABS,ioos:station:wmo:42045:1,2015-09-01T22:30:00Z,26.2168,-96.4998,2.0,267.0243121,4.8164925,-99999.0,'11133222,11111222,99999999' 
TABS,ioos:station:wmo:42045:1,2015-09-01T23:00:00Z,26.2168,-96.4998,2.0,239.3285905,2.685702888,-99999.0,'11133222,11111222,99999999' 
TABS,ioos:station:wmo:42045:1,2015-09-01T23:30:00Z,26.2168,-96.4998,2.0,301.3555295,4.016590594,-99999.0,'11133222,11111222,99999999' 
TABS,ioos:station:wmo:42045:1,2015-09-02T00:00:00Z,26.2168,-96.4998,2.0,339.875104,4.82457252,-99999.0,'11133222,11111222,99999999' 
TABS,ioos:station:wmo:42045:1,2015-09-02T00:30:00Z,26.2168,-96.4998,2.0,336.8518016,4.502499306,-99999.0,'11133222,11111222,99999999' 
TABS,ioos:station:wmo:42045:1,2015-09-02T01:00:00Z,26.2168,-96.4998,2.0,319.8742007,7.323824138,-99999.0,'11133222,11111222,99999999' 
TABS,ioos:station:wmo:42045:1,2015-09-02T01:30:00Z,26.2168,-96.4998,2.0,331.0738523,6.946653871,-99999.0,'11133222,11111222,99999999' 
TABS,ioos:station:wmo:42045:1,2015-09-02T02:00:00Z,26.2168,-96.4998,2.0,342.7065013,11.90833742,-99999.0,'11111222,11111222,99999999' 
TABS,ioos:station:wmo:42045:1,2015-09-02T02:30:00Z,26.2168,-96.4998,2.0,357.6738541,9.607918609,-99999.0,'11133222,11111222,99999999' 
TABS,ioos:station:wmo:42045:1,2015-09-02T03:00:00Z,26.2168,-96.4998,2.0,346.4050449,10.08250465,-99999.0,'11111222,11111222,99999999' 
TABS,ioos:station:wmo:42045:1,2015-09-02T03:30:00Z,26.2168,-96.4998,2.0,4.281023965,17.14783951,-99999.0,'11111222,11111222,99999999' 
TABS,ioos:station:wmo:42045:1,2015-09-02T04:00:00Z,26.2168,-96.4998,2.0,3.220610789,19.58092184,-99999.0,'11111222,11111222,99999999' 
TABS,ioos:station:wmo:42045:1,2015-09-02T04:30:00Z,26.2168,-96.4998,2.0,10.00315368,19.86192589,-99999.0,'11111222,11111222,99999999' 
TABS,ioos:station:wmo:42045:1,2015-09-02T05:00:00Z,26.2168,-96.4998,2.0,21.12805747,19.1149418,-99999.0,'11111222,11111222,99999999' 
TABS,ioos:station:wmo:42045:1,2015-09-02T05:30:00Z,26.2168,-96.4998,2.0,16.22139731,19.40240449,-99999.0,'11111222,11111222,99999999' 
TABS,ioos:station:wmo:42045:1,2015-09-02T06:00:00Z,26.2168,-96.4998,2.0,22.68909364,19.7807836,-99999.0,'11111222,11111222,99999999' 
TABS,ioos:station:wmo:42045:1,2015-09-02T06:30:00Z,26.2168,-96.4998,2.0,26.7015904,22.54410122,-99999.0,'11111222,11111222,99999999' 
TABS,ioos:station:wmo:42045:1,2015-09-02T07:00:00Z,26.2168,-96.4998,2.0,31.5319212,33.21404823,-99999.0,'11111222,11111222,99999999' 
TABS,ioos:station:wmo:42045:1,2015-09-02T07:30:00Z,26.2168,-96.4998,2.0,27.69847384,33.23894403,-99999.0,'11111222,11111222,99999999' 
TABS,ioos:station:wmo:42045:1,2015-09-02T08:00:00Z,26.2168,-96.4998,2.0,34.87414717,32.61778809,-99999.0,'11111222,11111222,99999999' 
TABS,ioos:station:wmo:42045:1,2015-09-02T08:30:00Z,26.2168,-96.4998,2.0,38.50077415,32.04697958,-99999.0,'11111222,11111222,99999999' 
TABS,ioos:station:wmo:42045:1,2015-09-02T09:00:00Z,26.2168,-96.4998,2.0,40.73468513,29.37680207,-99999.0,'11111222,11111222,99999999' 
TABS,ioos:station:wmo:42045:1,2015-09-02T09:30:00Z,26.2168,-96.4998,2.0,35.38644423,24.64226045,-99999.0,'11111222,11111222,99999999' 
TABS,ioos:station:wmo:42045:1,2015-09-02T10:00:00Z,26.2168,-96.4998,2.0,45.36240349,23.48348569,-99999.0,'11111222,11111222,99999999' 
TABS,ioos:station:wmo:42045:1,2015-09-02T10:30:00Z,26.2168,-96.4998,2.0,45.12325527,26.31857519,-99999.0,'11111222,11111222,99999999' 
TABS,ioos:station:wmo:42045:1,2015-09-02T11:00:00Z,26.2168,-96.4998,2.0,49.73018776,23.0666014,-99999.0,'11111222,11111222,99999999' 
TABS,ioos:station:wmo:42045:1,2015-09-02T11:30:00Z,26.2168,-96.4998,2.0,47.19235367,21.07306337,-99999.0,'11111222,11111222,99999999' 
TABS,ioos:station:wmo:42045:1,2015-09-02T12:00:00Z,26.2168,-96.4998,2.0,54.4157096,21.39538502,-99999.0,'11111222,11111222,99999999' 
TABS,ioos:station:wmo:42045:1,2015-09-02T12:30:00Z,26.2168,-96.4998,2.0,57.8688411,21.71622895,-99999.0,'11111222,11111222,99999999' 
TABS,ioos:station:wmo:42045:1,2015-09-02T13:00:00Z,26.2168,-96.4998,2.0,63.37981284,18.5683171,-99999.0,'11111222,11111222,99999999' 
TABS,ioos:station:wmo:42045:1,2015-09-02T13:30:00Z,26.2168,-96.4998,2.0,65.70477286,18.18007976,-99999.0,'11111222,11111222,99999999' 
TABS,ioos:station:wmo:42045:1,2015-09-02T14:00:00Z,26.2168,-96.4998,2.0,63.91234307,17.71474527,-99999.0,'11111222,11111222,99999999' 
TABS,ioos:station:wmo:42045:1,2015-09-02T14:30:00Z,26.2168,-96.4998,2.0,63.25142517,15.35292155,-99999.0,'11111222,11111222,99999999' 
TABS,ioos:station:wmo:42045:1,2015-09-02T15:00:00Z,26.2168,-96.4998,2.0,62.27952296,12.64082671,-99999.0,'11111222,11111222,99999999' 
TABS,ioos:station:wmo:42045:1,2015-09-02T15:30:00Z,26.2168,-96.4998,2.0,59.2373524,11.24180146,-99999.0,'11111222,11111222,99999999' 
TABS,ioos:station:wmo:42045:1,2015-09-02T16:00:00Z,26.2168,-96.4998,2.0,51.11679227,12.0114154,-99999.0,'11111222,11111222,99999999' 
TABS,ioos:station:wmo:42045:1,2015-09-02T16:30:00Z,26.2168,-96.4998,2.0,56.43038008,10.56151504,-99999.0,'11111222,11111222,99999999' 
TABS,ioos:station:wmo:42045:1,2015-09-02T17:00:00Z,26.2168,-96.4998,2.0,47.28541628,12.23560787,-99999.0,'11111222,11111222,99999999' 
TABS,ioos:station:wmo:42045:1,2015-09-02T17:30:00Z,26.2168,-96.4998,2.0,43.01400328,9.997424668,-99999.0,'11133222,11111222,99999999' 
TABS,ioos:station:wmo:42045:1,2015-09-02T18:00:00Z,26.2168,-96.4998,2.0,54.69746305,9.067392128,-99999.0,'11133222,11111222,99999999' 
TABS,ioos:station:wmo:42045:1,2015-09-02T18:30:00Z,26.2168,-96.4998,2.0,41.66288491,8.138458085,-99999.0,'11133222,11111222,99999999' 
TABS,ioos:station:wmo:42045:1,2015-09-02T19:00:00Z,26.2168,-96.4998,2.0,20.85771797,8.229277003,-99999.0,'11133222,11111222,99999999' 
TABS,ioos:station:wmo:42045:1,2015-09-02T19:30:00Z,26.2168,-96.4998,2.0,34.17355932,9.86292046,-99999.0,'11133222,11111222,99999999' 
TABS,ioos:station:wmo:42045:1,2015-09-02T20:00:00Z,26.2168,-96.4998,2.0,36.5830678,11.98015025,-99999.0,'11111222,11111222,99999999' 
TABS,ioos:station:wmo:42045:1,2015-09-02T20:30:00Z,26.2168,-96.4998,2.0,32.19776387,9.477494395,-99999.0,'11133222,11111222,99999999' 
TABS,ioos:station:wmo:42045:1,2015-09-02T21:00:00Z,26.2168,-96.4998,2.0,12.33336982,8.895285268,-99999.0,'11133222,11111222,99999999' 
TABS,ioos:station:wmo:42045:1,2015-09-02T21:30:00Z,26.2168,-96.4998,2.0,0.486212761,10.61038171,-99999.0,'11111222,11111222,99999999' 
TABS,ioos:station:wmo:42045:1,2015-09-02T22:00:00Z,26.2168,-96.4998,2.0,1.476364247,13.97463774,-99999.0,'11111222,11111222,99999999' 
TABS,ioos:station:wmo:42045:1,2015-09-02T22:30:00Z,26.2168,-96.4998,2.0,354.6962997,13.73882455,-99999.0,'11111222,11111222,99999999' 
TABS,ioos:station:wmo:42045:1,2015-09-02T23:00:00Z,26.2168,-96.4998,2.0,354.0180089,13.43315302,-99999.0,'11111222,11111222,99999999' 
TABS,ioos:station:wmo:42045:1,2015-09-02T23:30:00Z,26.2168,-96.4998,2.0,349.7218924,15.4682255,-99999.0,'11111222,11111222,99999999' 
TABS,ioos:station:wmo:42045:1,2015-09-03T00:00:00Z,26.2168,-96.4998,2.0,0.0,0.0,-99999.0,'11133222,11111222,99999999' 
TABS,ioos:station:wmo:42045:1,2015-09-03T00:30:00Z,26.2168,-96.4998,2.0,358.3173967,18.0477838,-99999.0,'11111222,11111222,99999999' 
TABS,ioos:station:wmo:42045:1,2015-09-03T01:00:00Z,26.2168,-96.4998,2.0,357.2910808,15.86773456,-99999.0,'11111222,11111222,99999999' 
TABS,ioos:station:wmo:42045:1,2015-09-03T01:30:00Z,26.2168,-96.4998,2.0,357.5411722,19.5780285,-99999.0,'11111222,11111222,99999999' 
TABS,ioos:station:wmo:42045:1,2015-09-03T02:00:00Z,26.2168,-96.4998,2.0,7.155421399,23.52319068,-99999.0,'11111222,11111222,99999999' 
TABS,ioos:station:wmo:42045:1,2015-09-03T02:30:00Z,26.2168,-96.4998,2.0,8.210759779,21.14675625,-99999.0,'11111222,11111222,99999999' 
TABS,ioos:station:wmo:42045:1,2015-09-03T03:00:00Z,26.2168,-96.4998,2.0,7.075275473,24.19422452,-99999.0,'11111222,11111222,99999999' 
TABS,ioos:station:wmo:42045:1,2015-09-03T03:30:00Z,26.2168,-96.4998,2.0,6.59565816,24.29075956,-99999.0,'11111222,11111222,99999999' 
TABS,ioos:station:wmo:42045:1,2015-09-03T04:00:00Z,26.2168,-96.4998,2.0,4.23200233,27.64537032,-99999.0,'11111222,11111222,99999999' 
TABS,ioos:station:wmo:42045:1,2015-09-03T04:30:00Z,26.2168,-96.4998,2.0,10.07322434,26.52892761,-99999.0,'11111222,11111222,99999999' 
TABS,ioos:station:wmo:42045:1,2015-09-03T05:00:00Z,26.2168,-96.4998,2.0,15.10127331,29.36400858,-99999.0,'11111222,11111222,99999999' 
TABS,ioos:station:wmo:42045:1,2015-09-03T05:30:00Z,26.2168,-96.4998,2.0,18.45932219,29.94044756,-99999.0,'11111222,11111222,99999999' 
TABS,ioos:station:wmo:42045:1,2015-09-03T06:00:00Z,26.2168,-96.4998,2.0,23.5615666,29.44474486,-99999.0,'11111222,11111222,99999999' 
TABS,ioos:station:wmo:42045:1,2015-09-03T06:30:00Z,26.2168,-96.4998,2.0,28.90570321,30.99092286,-99999.0,'11111222,11111222,99999999' 
TABS,ioos:station:wmo:42045:1,2015-09-03T07:00:00Z,26.2168,-96.4998,2.0,16.34923899,32.75443939,-99999.0,'11111222,11111222,99999999' 
TABS,ioos:station:wmo:42045:1,2015-09-03T07:30:00Z,26.2168,-96.4998,2.0,22.19883167,38.29872713,-99999.0,'11111222,11111222,99999999' 
TABS,ioos:station:wmo:42045:1,2015-09-03T08:00:00Z,26.2168,-96.4998,2.0,20.67309702,40.73274481,-99999.0,'11111222,11111222,99999999' 
TABS,ioos:station:wmo:42045:1,2015-09-03T08:30:00Z,26.2168,-96.4998,2.0,25.99694162,38.32809022,-99999.0,'11111222,11111222,99999999' 
TABS,ioos:station:wmo:42045:1,2015-09-03T09:00:00Z,26.2168,-96.4998,2.0,25.52586168,38.70823297,-99999.0,'11111222,11111222,99999999' 
TABS,ioos:station:wmo:42045:1,2015-09-03T09:30:00Z,26.2168,-96.4998,2.0,24.95944923,38.46205663,-99999.0,'11111222,11111222,99999999' 
TABS,ioos:station:wmo:42045:1,2015-09-03T10:00:00Z,26.2168,-96.4998,2.0,27.50134206,37.22655638,-99999.0,'11111222,11111222,99999999' 
TABS,ioos:station:wmo:42045:1,2015-09-03T10:30:00Z,26.2168,-96.4998,2.0,22.56124898,35.99463432,-99999.0,'11111222,11111222,99999999' 
TABS,ioos:station:wmo:42045:1,2015-09-03T11:00:00Z,26.2168,-96.4998,2.0,23.11532732,33.36893915,-99999.0,'11111222,11111222,99999999' 
TABS,ioos:station:wmo:42045:1,2015-09-03T11:30:00Z,26.2168,-96.4998,2.0,24.08851843,33.73800379,-99999.0,'11111222,11111222,99999999' 
TABS,ioos:station:wmo:42045:1,2015-09-03T12:00:00Z,26.2168,-96.4998,2.0,28.28362476,35.94083193,-99999.0,'11111222,11111222,99999999' 
TABS,ioos:station:wmo:42045:1,2015-09-03T12:30:00Z,26.2168,-96.4998,2.0,26.89659737,34.79379974,-99999.0,'11111222,11111222,99999999' 
TABS,ioos:station:wmo:42045:1,2015-09-03T13:00:00Z,26.2168,-96.4998,2.0,31.58344655,35.68579689,-99999.0,'11111222,11111222,99999999' 
TABS,ioos:station:wmo:42045:1,2015-09-03T13:30:00Z,26.2168,-96.4998,2.0,34.15043462,32.45655558,-99999.0,'11111222,11111222,99999999' 
TABS,ioos:station:wmo:42045:1,2015-09-03T14:00:00Z,26.2168,-96.4998,2.0,33.51515099,29.04978485,-99999.0,'11111222,11111222,99999999' 
TABS,ioos:station:wmo:42045:1,2015-09-03T14:30:00Z,26.2168,-96.4998,2.0,29.99982226,30.68029498,-99999.0,'11111222,11111222,99999999' 
TABS,ioos:station:wmo:42045:1,2015-09-03T15:00:00Z,26.2168,-96.4998,2.0,36.16347375,27.5720964,-99999.0,'11111222,11111222,99999999' 
TABS,ioos:station:wmo:42045:1,2015-09-03T15:30:00Z,26.2168,-96.4998,2.0,40.30703578,27.65574443,-99999.0,'11111222,11111222,99999999' 
TABS,ioos:station:wmo:42045:1,2015-09-03T16:00:00Z,26.2168,-96.4998,2.0,39.76128472,24.78154555,-99999.0,'11111222,11111222,99999999' 
TABS,ioos:station:wmo:42045:1,2015-09-03T16:30:00Z,26.2168,-96.4998,2.0,40.3451678,23.52525877,-99999.0,'11111222,11111222,99999999' 
TABS,ioos:station:wmo:42045:1,2015-09-03T17:00:00Z,26.2168,-96.4998,2.0,32.84075059,20.57886537,-99999.0,'11111222,11111222,99999999' 
TABS,ioos:station:wmo:42045:1,2015-09-03T17:30:00Z,26.2168,-96.4998,2.0,31.28366798,21.2027003,-99999.0,'11111222,11111222,99999999' 
TABS,ioos:station:wmo:42045:1,2015-09-03T18:00:00Z,26.2168,-96.4998,2.0,24.99471666,21.70248373,-99999.0,'11111222,11111222,99999999' 
TABS,ioos:station:wmo:42045:1,2015-09-03T18:30:00Z,26.2168,-96.4998,2.0,31.11504515,20.80285077,-99999.0,'11111222,11111222,99999999' 
TABS,ioos:station:wmo:42045:1,2015-09-03T19:00:00Z,26.2168,-96.4998,2.0,28.31845251,17.68663337,-99999.0,'11111222,11111222,99999999' 
TABS,ioos:station:wmo:42045:1,2015-09-03T19:30:00Z,26.2168,-96.4998,2.0,18.08530777,19.68238299,-99999.0,'11111222,11111222,99999999' 
TABS,ioos:station:wmo:42045:1,2015-09-03T20:00:00Z,26.2168,-96.4998,2.0,16.14210036,18.0204384,-99999.0,'11111222,11111222,99999999' 
TABS,ioos:station:wmo:42045:1,2015-09-03T20:30:00Z,26.2168,-96.4998,2.0,1.289219922,19.11483717,-99999.0,'11111222,11111222,99999999' 
TABS,ioos:station:wmo:42045:1,2015-09-03T21:00:00Z,26.2168,-96.4998,2.0,7.188427089,16.86253243,-99999.0,'11111222,11111222,99999999' 
TABS,ioos:station:wmo:42045:1,2015-09-03T21:30:00Z,26.2168,-96.4998,2.0,357.7437219,18.79457368,-99999.0,'11111222,11111222,99999999' 
TABS,ioos:station:wmo:42045:1,2015-09-03T22:00:00Z,26.2168,-96.4998,2.0,354.9237317,16.27383483,-99999.0,'11111222,11111222,99999999' 
TABS,ioos:station:wmo:42045:1,2015-09-03T22:30:00Z,26.2168,-96.4998,2.0,354.0704756,16.64908406,-99999.0,'11111222,11111222,99999999' 
TABS,ioos:station:wmo:42045:1,2015-09-03T23:00:00Z,26.2168,-96.4998,2.0,345.0091608,14.84524166,-99999.0,'11111222,11111222,99999999' 
TABS,ioos:station:wmo:42045:1,2015-09-03T23:30:00Z,26.2168,-96.4998,2.0,350.2736605,16.04057979,-99999.0,'11111222,11111222,99999999' 
TABS,ioos:station:wmo:42045:1,2015-09-04T00:00:00Z,26.2168,-96.4998,2.0,345.2631896,22.40711717,-99999.0,'11111222,11111222,99999999' 
TABS,ioos:station:wmo:42045:1,2015-09-04T00:30:00Z,26.2168,-96.4998,2.0,343.4089154,23.39399068,-99999.0,'11111222,11111222,99999999' 
TABS,ioos:station:wmo:42045:1,2015-09-04T01:00:00Z,26.2168,-96.4998,2.0,342.7862139,15.13809763,-99999.0,'11111222,11111222,99999999' 
TABS,ioos:station:wmo:42045:1,2015-09-04T01:30:00Z,26.2168,-96.4998,2.0,343.7820474,25.09880674,-99999.0,'11111222,11111222,99999999' 
TABS,ioos:station:wmo:42045:1,2015-09-04T02:00:00Z,26.2168,-96.4998,2.0,348.4007496,27.55270767,-99999.0,'11111222,11111222,99999999' 
TABS,ioos:station:wmo:42045:1,2015-09-04T02:30:00Z,26.2168,-96.4998,2.0,346.8625375,30.31340463,-99999.0,'11111222,11111222,99999999' 
TABS,ioos:station:wmo:42045:1,2015-09-04T03:00:00Z,26.2168,-96.4998,2.0,350.872317,31.26593194,-99999.0,'11111222,11111222,99999999' 
TABS,ioos:station:wmo:42045:1,2015-09-04T03:30:00Z,26.2168,-96.4998,2.0,355.1637651,34.63331489,-99999.0,'11111222,11111222,99999999' 
TABS,ioos:station:wmo:42045:1,2015-09-04T04:00:00Z,26.2168,-96.4998,2.0,357.2634117,38.95443107,-99999.0,'11111222,11111222,99999999' 
TABS,ioos:station:wmo:42045:1,2015-09-04T04:30:00Z,26.2168,-96.4998,2.0,4.619696903,40.60189404,-99999.0,'11111222,11111222,99999999' 
TABS,ioos:station:wmo:42045:1,2015-09-04T05:00:00Z,26.2168,-96.4998,2.0,6.475037103,45.58073826,-99999.0,'11111222,11111222,99999999' 
TABS,ioos:station:wmo:42045:1,2015-09-04T05:30:00Z,26.2168,-96.4998,2.0,2.618579587,51.00324892,-99999.0,'11111222,11111222,99999999' 
TABS,ioos:station:wmo:42045:1,2015-09-04T06:00:00Z,26.2168,-96.4998,2.0,4.462762223,54.36481307,-99999.0,'11111222,11111222,99999999' 
TABS,ioos:station:wmo:42045:1,2015-09-04T06:30:00Z,26.2168,-96.4998,2.0,6.458565881,48.18579459,-99999.0,'11111222,11111222,99999999' 
TABS,ioos:station:wmo:42045:1,2015-09-04T07:00:00Z,26.2168,-96.4998,2.0,5.543699944,51.86255393,-99999.0,'11111222,11111222,99999999' 
TABS,ioos:station:wmo:42045:1,2015-09-04T07:30:00Z,26.2168,-96.4998,2.0,7.013549094,52.82525343,-99999.0,'11111222,11111222,99999999' 
TABS,ioos:station:wmo:42045:1,2015-09-04T08:00:00Z,26.2168,-96.4998,2.0,5.090569861,51.84447512,-99999.0,'11111222,11111222,99999999' 
TABS,ioos:station:wmo:42045:1,2015-09-04T08:30:00Z,26.2168,-96.4998,2.0,4.161859086,51.53588653,-99999.0,'11111222,11111222,99999999' 
TABS,ioos:station:wmo:42045:1,2015-09-04T09:00:00Z,26.2168,-96.4998,2.0,4.192224753,52.94163673,-99999.0,'11111222,11111222,99999999' 
TABS,ioos:station:wmo:42045:1,2015-09-04T09:30:00Z,26.2168,-96.4998,2.0,2.745379939,53.45133955,-99999.0,'11111222,11111222,99999999' 
TABS,ioos:station:wmo:42045:1,2015-09-04T10:00:00Z,26.2168,-96.4998,2.0,4.313164821,52.78949233,-99999.0,'11111222,11111222,99999999' 
TABS,ioos:station:wmo:42045:1,2015-09-04T10:30:00Z,26.2168,-96.4998,2.0,5.475821539,49.2547551,-99999.0,'11111222,11111222,99999999' 
TABS,ioos:station:wmo:42045:1,2015-09-04T11:00:00Z,26.2168,-96.4998,2.0,4.636910746,49.48194014,-99999.0,'11111222,11111222,99999999' 
TABS,ioos:station:wmo:42045:1,2015-09-04T11:30:00Z,26.2168,-96.4998,2.0,5.16251203,48.45654961,-99999.0,'11111222,11111222,99999999' 
TABS,ioos:station:wmo:42045:1,2015-09-04T12:00:00Z,26.2168,-96.4998,2.0,7.382314254,45.60803109,-99999.0,'11111222,11111222,99999999' 
TABS,ioos:station:wmo:42045:1,2015-09-04T12:30:00Z,26.2168,-96.4998,2.0,8.595806132,44.56051167,-99999.0,'11111222,11111222,99999999' 
TABS,ioos:station:wmo:42045:1,2015-09-04T13:00:00Z,26.2168,-96.4998,2.0,8.31160853,44.68937234,-99999.0,'11111222,11111222,99999999' 
TABS,ioos:station:wmo:42045:1,2015-09-04T13:30:00Z,26.2168,-96.4998,2.0,14.54382557,42.4502497,-99999.0,'11111222,11111222,99999999' 
TABS,ioos:station:wmo:42045:1,2015-09-04T14:00:00Z,26.2168,-96.4998,2.0,17.7195845,39.75609261,-99999.0,'11111222,11111222,99999999' 
TABS,ioos:station:wmo:42045:1,2015-09-04T14:30:00Z,26.2168,-96.4998,2.0,13.16296329,40.09337227,-99999.0,'11111222,11111222,99999999' 
TABS,ioos:station:wmo:42045:1,2015-09-04T15:00:00Z,26.2168,-96.4998,2.0,11.14997672,35.78545095,-99999.0,'11111222,11111222,99999999' 
TABS,ioos:station:wmo:42045:1,2015-09-04T15:30:00Z,26.2168,-96.4998,2.0,16.75853708,31.5603929,-99999.0,'11111222,11111222,99999999' 
TABS,ioos:station:wmo:42045:1,2015-09-04T16:00:00Z,26.2168,-96.4998,2.0,14.24585784,38.48338473,-99999.0,'11111222,11111222,99999999' 